Location: Unspecified
(0.0000°N, 0.0000°E)
Time: 06:05:25
(UTC-05:00)

Daily predictions for brighter satellites

Satellite Brightness Start Highest point End
(mag) Time Altitude Azimuth Time Altitude Azimuth Time Altitude Azimuth
Ariane 44P Rocket 4.0 12:36:13 10° W 12:40:03 77° S 13:02:29 10° E
BLOCK DM-SL R/B 3.8 13:05:24 10° W 13:10:26 89° S 19:44:17 10° E
Aureole 3 4.2 13:17:43 10° NNE 13:20:34 22° E 13:23:06 10° SE
Cosmos 371 Rocket 3.7 13:16:30 10° SSW 13:21:19 69° WNW 13:26:05 10° N
Lacrosse 4 Rocket 2.8 13:20:48 10° NNE 13:24:20 23° ENE 13:27:48 10° SE
Meteor 1-27 Rocket 3.9 13:18:35 10° S 13:24:21 85° W 13:29:58 10° N
COSMOS 2487 2.5 13:24:31 10° S 13:27:56 54° E 13:31:20 10° NNE
Landsat 4 3.7 13:26:13 10° NNE 13:29:52 56° ESE 13:33:33 10° S
Ariane Rocket 3.1 13:25:19 10° S 13:30:22 81° WSW 13:35:25 10° NNW
Cosmos 1459 Rocket 4.2 13:24:41 10° SSE 13:30:29 46° E 13:36:12 10° NNE
GOES 2 Rocket 3.8 13:30:22 10° SW 13:35:00 47° SSE 13:40:55 10° ENE
GPS 2-18 Rocket1 3.6 13:31:53 10° W 13:35:35 50° SSW 13:38:59 12° SE
CZ-4 R/B 2.4 13:32:09 10° S 13:36:15 52° WSW 13:40:19 10° NNW
NOSS 3-2 (A) 4.1 13:30:48 10° SW 13:36:22 56° WNW 13:41:58 10° N
Cosmos 2084 3.5 13:32:21 10° SSW 13:37:05 72° ESE 13:41:33 10° NNE
Thor Agena Rocket 4.3 13:36:22 10° NE 13:40:44 28° ESE 13:45:04 10° SSE
Cosmos 2173 Rocket 4.1 13:34:31 10° S 13:40:46 61° E 13:47:01 10° NNE
NOSS 3-2 (C) 3.4 13:36:29 10° SSW 13:42:14 81° WNW 13:47:59 10° NNE
DELTA 2 R/B (1) 3.5 13:38:13 10° SW 13:43:46 81° SE 13:49:18 10° NE
Cosmos 1354 Rocket 4.0 13:39:46 10° N 13:45:00 83° ENE 13:50:17 10° SSE
Meteor 2-12 Rocket 4.4 13:39:56 10° S 13:45:54 61° E 13:51:51 10° NNE
Okean 2 Rocket 4.2 13:43:11 10° NNE 13:46:44 23° E 13:49:00 16° SE
BREEZE-M DEB (TANK) 3.1 13:41:09 10° NW 13:48:09 51° WSW 13:50:21 12° SSE
Cosmos 1782 Rocket 3.7 13:44:24 10° N 13:48:35 50° E 13:52:47 10° SSE
YAOGAN 1 3.3 13:45:27 10° S 13:49:41 56° WSW 13:53:54 10° NNW
SPOT 3 Rocket 4.1 13:45:16 10° SE 13:49:58 37° ENE 13:54:39 10° N
Timation 2 Rocket 3.9 13:44:19 10° S 13:50:14 54° ESE 13:56:01 10° NNE
BLOCK DM-SL R/B 4.4 13:30:38 10° W 13:51:07 88° S 13:55:38 16° E
ALOS 3.7 13:50:18 10° S 13:54:39 39° WSW 13:58:59 10° NNW
Cosmos 1536 4.2 13:52:32 10° NE 13:55:27 19° E 13:55:30 19° E
NATO 3D Rocket 4.0 13:50:45 10° SW 13:55:29 42° SSE 13:59:36 18° E
Cosmos 2100 Rocket 4.2 13:52:10 10° S 13:58:32 80° W 14:04:52 10° N
Cosmos 2061 Rocket 4.0 13:52:18 10° S 13:58:44 74° E 14:05:05 10° N
Ariane H10+ 2.0 13:59:33 10° WSW 14:00:36 24° SW 14:00:36 24° SW
Centaur AC-72 3.3 13:56:57 10° WSW 14:02:44 70° NNW 14:13:39 10° ENE
Cosmos 1570 Rocket 3.9 13:57:39 10° S 14:02:57 83° ESE 14:08:15 10° NNE
Cosmos 2016 Rocket 3.9 13:57:02 10° S 14:03:04 64° E 14:09:04 10° NNE
CENTAUR R/B 2.2 13:57:50 10° S 14:03:04 50° ESE 14:08:31 10° NE
ATLAS CENTAUR R/B 4.4 14:03:47 10° W 14:05:47 18° NW 14:09:01 10° N
H-2A R/B 2.8 14:02:01 10° S 14:05:51 81° WSW 14:09:44 10° NNW
Cosmos 1812 3.5 14:07:14 10° SSW 14:11:00 53° W 14:14:44 10° N
Meteor 1-11 Rocket 3.7 14:07:47 10° N 14:13:25 68° E 14:18:36 13° SSE
MOS 1 4.4 14:09:39 10° S 14:15:19 77° WSW 14:20:57 10° NNW
Cosmos 1725 Rocket 4.0 14:09:24 10° S 14:15:26 57° E 14:21:28 10° NNE
Cosmos 2369 4.1 14:15:42 10° N 14:20:59 41° ENE 14:22:10 36° ESE
Okean 1 3.5 14:21:22 48° E 14:21:22 48° E 14:25:06 10° NNE
Cosmos 1271 Rocket 3.4 14:19:07 10° NNW 14:22:52 52° W 14:25:43 16° SSW
FengYun 1-2 T 4.2 14:21:03 13° S 14:26:05 86° WSW 14:31:44 10° NNW
Cosmos 967 Rocket 4.4 14:20:31 10° NNW 14:26:50 89° ENE 14:30:21 28° SSE
ARIANE 5 DEB (SYLDA) 3.0 14:25:45 10° W 14:27:13 41° WSW 14:27:13 41° WSW
Cosmos 1814 Rocket 4.1 14:28:13 46° SE 14:28:49 49° ESE 14:33:48 10° NNE
IRAS Rocket 4.2 14:26:22 18° S 14:30:33 80° WSW 14:36:02 10° NNW
Envisat 2.9 14:37:53 61° ESE 14:38:20 64° ENE 14:43:20 10° N
Cosmos 44 4.1 14:35:05 10° N 14:39:33 40° NE 14:39:33 40° NE
Meteor 1-5 Rocket 4.3 14:37:15 10° N 14:43:12 82° W 14:46:17 30° S
Centaur AC-129 4.4 14:41:38 10° WNW 14:47:01 69° SSW 14:48:58 47° SE
Alouette 2 Rocket 4.5 14:42:31 10° N 14:46:33 42° NNE 14:46:33 42° NNE
CZ-2D R/B 4.5 14:49:49 36° NNW 14:49:49 36° NNW 14:52:11 10° NNW
Cosmos 1378 Rocket 4.3 14:49:51 34° SW 14:51:21 51° W 14:55:32 10° N
Cosmos 2233 Rocket 3.8 14:53:33 63° SSE 14:54:34 79° E 15:00:41 10° N
Cosmos 1777 Rocket 4.4 14:50:54 10° N 14:54:51 51° NNE 14:54:51 51° NNE
Cosmos 2278 3.6 14:53:31 10° NNW 14:59:11 87° WSW 14:59:12 87° WSW
Lacrosse 4 Rocket 4.2 15:00:22 10° WNW 15:02:45 14° WSW 15:04:45 11° SW
Cosmos 1656 3.9 15:01:58 10° NNW 15:07:22 60° WSW 15:07:27 60° WSW
Ariane H10 4.3 14:40:31 10° W 15:08:13 71° S 15:08:37 69° SSE
Cosmos 1697 Rocket 3.5 15:17:28 10° NNW 15:21:21 45° NNW 15:21:21 45° NNW
Cosmos 1980 Rocket 4.1 15:31:06 10° N 15:32:59 22° N 15:32:59 22° N
Ariane H10 4.3 15:54:30 10° WNW 16:22:19 16° E 16:36:54 10° E
Ariane H10 4.3 15:54:29 10° WNW 16:22:19 16° E 16:36:54 10° E
Ariane H10 4.3 15:54:29 10° WNW 16:22:18 16° E 16:36:54 10° E
ARIANE 5 R/B 4.1 21:39:20 48° E 21:39:20 48° E 21:58:33 10° E
ARIANE 5 R/B 4.4 22:23:01 23° E 22:23:01 23° E 22:26:15 10° E
Ariane H10 3.4 22:32:04 54° NE 22:32:04 54° NE 22:42:34 10° E
Ariane H10 3.2 22:38:14 65° N 22:38:22 65° N 22:56:11 10° E
ARIANE 5 R/B 4.4 22:49:04 22° ESE 22:49:04 22° ESE 22:50:23 10° ESE
RESURS DK-1 4.0 22:48:23 33° ENE 22:48:23 33° ENE 22:51:04 10° NE
CZ-4B R/B 4.2 22:42:26 10° NNE 22:47:23 41° ESE 22:49:11 31° SSE
SL-8 R/B 4.3 22:53:21 54° E 22:53:21 54° E 22:57:25 10° NE
ARIANE 5 R/B 4.2 22:57:59 74° WNW 22:58:26 85° N 23:03:10 10° E
Nadezhda 3 Rocket 4.3 22:55:04 25° SSE 22:58:48 63° E 23:04:59 10° NNE
Lacrosse 5 4.2 23:01:59 11° NNW 23:01:59 11° NNW 23:02:28 10° NNW
Cosmos 1140 Rocket 3.4 23:05:35 67° S 23:06:19 84° ESE 23:11:30 10° NNE
Meteor 2-15 Rocket 4.3 23:04:24 38° S 23:06:57 89° E 23:13:05 10° N
SPELTRA 4.0 23:05:45 31° NW 23:07:24 39° N 23:10:48 10° ENE
ARIANE 5 R/B 2.7 23:06:55 50° WSW 23:08:41 78° S 23:11:55 10° E
Cosmos 676 Rocket 3.8 23:08:41 73° WSW 23:08:54 75° WNW 23:14:09 10° N
Cosmos 2341 Rocket 4.4 23:05:18 10° NNW 23:10:18 43° WNW 23:10:18 43° WNW
Cosmos 1933 Rocket 4.2 23:09:48 32° SSE 23:11:35 53° E 23:15:50 10° NNE
Abrixas rocket 4.0 23:13:38 28° ESE 23:13:38 28° ESE 23:15:25 10° SE
ISS -1.2 23:16:48 14° SE 23:16:48 14° SE 23:17:23 10° SE
Cosmos 1302 Rocket 3.9 23:09:01 10° NNW 23:14:13 63° WSW 23:14:15 63° WSW
ATLAS 5 CENTAUR R/B 4.2 23:16:24 13° NNW 23:16:24 13° NNW 23:17:23 10° N
SL-8 Rocket 3.9 23:11:14 10° N 23:17:25 70° W 23:23:39 10° S
Cosmos 2369 Rocket 3.4 23:13:40 11° S 23:18:50 41° ESE 23:24:09 10° NE
BLOCK DM-SL R/B 3.3 23:19:50 57° W 23:20:40 89° S 23:28:39 10° E
COSMOS 2406 3.1 23:15:32 10° NNW 23:21:16 86° WSW 23:27:00 10° SSE
Ariane 3 Deb 3.8 23:25:13 18° SE 23:25:13 18° SE 23:26:40 10° ESE
Cosmos 405 3.2 23:24:15 51° SSE 23:24:55 66° E 23:28:22 10° NNE
Milstar 3 Cent rocket 2.7 23:22:41 35° WSW 23:26:31 80° NNW 23:31:54 10° NE
ATLAS 5 CENTAUR R/B 2.4 23:28:13 33° NW 23:28:13 33° NW 23:31:40 10° N
Cosmos 1954 Rocket 4.1 23:26:38 45° WSW 23:27:44 53° WNW 23:32:49 10° N
BREEZE M DEB (TANK) 3.4 23:26:56 45° SSW 23:28:06 78° SE 23:37:05 10° NE
PAYLOAD B 4.4 23:23:19 10° N 23:28:35 49° WNW 23:30:12 38° WSW
Cosmos 2366 rocket 3.8 23:22:46 10° N 23:28:55 77° W 23:35:03 10° S
ARIANE 3 DEB 2.4 23:31:17 55° SE 23:31:17 55° SE 23:34:26 10° ESE
Meteor 2-3 Rocket 4.0 23:30:04 38° WSW 23:31:14 44° W 23:36:30 10° NNW
Cosmos 864 Rocket 4.4 23:26:03 10° N 23:32:19 76° W 23:38:34 10° S
Aurora 2 Rocket 3.8 23:33:00 28° WNW 23:35:26 40° NNW 23:39:50 10° NE
Cosmos 1607 4.4 23:30:54 10° NW 23:36:25 34° WSW 23:41:52 10° S
Cosmos 1408 3.1 23:38:01 39° WNW 23:38:01 39° WNW 23:41:03 10° NNW
Okean O Rocket 2.3 23:33:49 10° NNW 23:37:46 33° WNW 23:37:55 33° W
ARIANE 5 DEB (SYLDA) 3.0 23:40:37 29° ENE 23:40:37 29° ENE 23:41:44 10° E
ARIANE 5 R/B 1.9 23:40:16 41° W 23:41:16 89° NNE 23:50:45 10° E
Meteor 1-31 Rocket 3.9 23:38:27 10° NNW 23:41:06 26° WNW 23:41:06 26° WNW
Cosmos 1825 2.4 23:41:13 42° WSW 23:41:44 45° W 23:45:20 10° NNW
GPS 2-18 Rocket1 4.1 23:41:09 28° SSW 23:42:25 36° SSE 23:46:03 10° E
Palapa 6 Rocket 4.4 23:43:17 20° WNW 23:45:21 28° NNW 23:48:59 10° NE
Cosmos 1850 Rocket 4.0 23:41:29 10° S 23:46:41 86° E 23:51:51 10° NNE
